DELTA 1 DEB, 42078

Orbit data source: Space-Track

DELTA 1 DEB, 42078 is space debris in SSO originally from a launch on Sun, 15 Dec 1968 UTC launched from the Air Force Western Test Range (AFWTR). Debris objects in space refer to the collection of defunct objects orbiting the Earth. Examples of debris include non-operational satellites, rocket bodies, and fragments generated from explosions, collisions, or faulty payload assembly.

Loading next visibility...
DELTA 1 DEB details
Identifier
42078, 1968-114E
Orbit
SSO
Last TLE update2 days ago
Origin
Flag of USGSFC (US)
ManufacturerAerojet
MissionSpacecraft
Bus & MotorUnknown
MassUnknown
Launch date (UTC)
1968-12-15 (56 years ago)
Launch vehicleUnknown
Launch site
Air Force Western Test Range (AFWTR)
Object type
Payload
Rocket body
Debris
Shape & HBRUnknown
Radar Cross SectionSmall (<0.1 m²)

Expand to show TLE details & history

TLE from 2 days ago
0 DELTA 1 DEB
1 42078U 68114E   24359.64358149  .00000056  00000-0  64963-3 0  9996
2 42078 101.4363 329.3892 0027124 237.2302 122.6156 12.49995678155792
Epoch: 2024-12-24T15:26Z
Definitive object data (Epoch: 2024-12-24T15:26:45.44Z)
Latitude0.00005°
Longitude4.05112°
Altitude1,478.606 km
Speed7.119 km/s
True Right ascension21h 57m 33s
True Declination0° 00' 00"
Sunlit
Object was in daylight at TLE epoch
Visualization TLE readout
Latitude25.13304°
Longitude-168.42853°
Altitude1,463.013 km
Speed7.135 km/s
Apparent Right ascension09h 16m 17s
Apparent Declination-3° 53' 03"
Sunlit
Object is in daylight
Visualization observer readout
Local Sidereal Time19:30:50
Azimuth319.66° NNW
Elevation-46.812°
Doppler factor1
Orbital elements
Apogee altitude1,483.307 km
Perigee altitude1,440.776 km
Semi-major axis7,840.179 km
Eccentricity0.0027124
Inclination101.4363°
RAAN329.3892°
Arg. of periapsis237.2302°
True anomaly122.87693°
Mean anomaly122.6156°
Eccentric anomaly122.74631°
Mean motion3.12647 °/min
BSTAR0.00064963
Orbital period115.15 mins
Loading maneuver chart data...
Loading historical data...
Loading historical data...
Loading historical data...
Loading historical data...
Loading historical data...
Loading historical data...
Loading historical data...

DELTA 1 DEB Visibility forecast

Observer location: undefined°, undefined

Span
Click to sort rows by Start time (UTC) header in descending order
Start Az.
Max El. time (UTC)
Max El. Az.
Max El.
End time (UTC)
End Az.
15 mins2024-12-26 21:20:04.258Z140.211° SSE2024-12-26 21:28:04.258Z55.771° ENE39.985°2024-12-26 21:35:04.258Z352.204° N
13 mins2024-12-26 23:15:04.258Z208.998° SW2024-12-26 23:21:04.258Z263.138° W27.892°2024-12-26 23:28:04.258Z322.507° NNW
9 mins2024-12-27 09:27:04.258Z58.632° ENE2024-12-27 09:31:04.258Z90.769° ESE17.507°2024-12-27 09:36:04.258Z129.52° SE
15 mins2024-12-27 11:18:04.258Z16.107° NNE2024-12-27 11:25:04.258Z307.429° NW44.953°2024-12-27 11:33:04.258Z201.091° SSW
9 mins2024-12-27 13:13:04.258Z341.624° N2024-12-27 13:17:04.258Z308.54° NW19.244°2024-12-27 13:22:04.258Z268.966° W
|